Weather History for KILG - May, 2014

Change the Weather History Date:

Thursday, May 22, 2014

  Actual Average Record
Temperature  
Mean Temperature 69 °F 65 °F  
Max Temperature 79 °F 75 °F 94 °F (1941)
Min Temperature 59 °F 55 °F 37 °F (2002)
Degree Days  
Heating Degree Days 0 3  
Month to date heating degree days 66 112  
Since 1 July heating degree days 5115 4781  
Cooling Degree Days 4 3  
Month to date cooling degree days 34 35  
Year to date cooling degree days 41 47  
Growing Degree Days 20 (Base 50)    
Moisture  
Dew Point 62 °F    
Average Humidity 82    
Maximum Humidity 97    
Minimum Humidity 67    
Precipitation  
Precipitation 0.10 in 0.14 in 1.74 in (1947)
Month to date precipitation 2.63 2.76  
Year to date precipitation 21.87 15.87  
Snow  
Snow 0.00 in 0.00 in 0.00 in (1894)
Month to date snowfall 0.0 0.0  
Since 1 July snowfall 56.1 20.2  
Snow Depth 0.00 in    
Sea Level Pressure  
Sea Level Pressure 29.83 in    
Wind  
Wind Speed 4 mph (SSE)    
Max Wind Speed 18 mph    
Max Gust Speed 23 mph    
Visibility 6 miles    
Events Rain , Thunderstorm    
T = Trace of Precipitation, MM = Missing Value Source: NWS Daily Summary

Daily Weather History Graph

Daily Weather History Graph

Search for Another Location

Airport or City:

Trip Planner

Search our weather history database for the weather conditions in past years. The results will help you decide how hot, cold, wet, or windy it might be!

Date:

Astronomy

May. 22, 2014 Rise Set
Actual Time 5:42 AM EDT 8:16 PM EDT
Civil Twilight 5:11 AM EDT 8:47 PM EDT
Nautical Twilight 4:32 AM EDT 9:26 PM EDT
Astronomical Twilight 3:49 AM EDT 10:09 PM EDT
Moon 1:59 AM EDT (5/22) 2:02 PM EDT (5/22)
Length of Visible Light 15h 36m
Length of Day
14h 34m
Last Quarter, 37% of the Moon is Illuminated
May 22
Last Quarter
May 28
New
Jun 5
First Quarter
Jun 13
Full
Jun 19
Last Quarter

Hourly Weather History & Observations

Time (EDT) Temp. Dew Point Humidity Pressure Visibility Wind Dir Wind Speed Gust Speed Precip Events Conditions
12:51 AM 63.0 °F 61.0 °F 93% 29.91 in 6.0 mi SSW 3.5 mph - N/A   Overcast
1:51 AM 62.1 °F 59.0 °F 90% 29.90 in 10.0 mi Calm Calm - N/A   Overcast
2:51 AM 62.1 °F 59.0 °F 90% 29.88 in 6.0 mi Calm Calm - 0.00 in   Mostly Cloudy
3:51 AM 62.1 °F 60.1 °F 93% 29.87 in 5.0 mi Calm Calm - N/A   Overcast
4:21 AM 62.1 °F 60.1 °F 93% 29.85 in 6.0 mi Calm Calm - N/A   Overcast
4:29 AM 62.1 °F 60.1 °F 93% 29.84 in 5.0 mi Calm Calm - N/A   Overcast
4:51 AM 61.0 °F 59.0 °F 93% 29.84 in 4.0 mi Calm Calm - N/A   Scattered Clouds
5:32 AM 60.1 °F 59.0 °F 96% 29.83 in 1.8 mi Calm Calm - N/A   Partly Cloudy
5:48 AM 60.8 °F 59.0 °F 94% 29.84 in 2.5 mi NW 3.5 mph - N/A   Mostly Cloudy
5:51 AM 60.1 °F 57.9 °F 93% 29.84 in 2.0 mi Calm Calm - N/A   Mostly Cloudy
5:54 AM 60.1 °F 59.0 °F 96% 29.84 in 1.8 mi Calm Calm - N/A   Mostly Cloudy
6:16 AM 61.0 °F 60.1 °F 97% 29.84 in 2.0 mi Calm Calm - N/A   Overcast
6:39 AM 62.1 °F 60.1 °F 93% 29.84 in 2.5 mi Calm Calm - 0.00 in Rain Light Rain
6:49 AM 62.6 °F 60.8 °F 94% 29.85 in 3.0 mi SSW 3.5 mph - 0.00 in Rain Light Rain
6:51 AM 62.1 °F 60.1 °F 93% 29.85 in 3.0 mi South 3.5 mph - 0.00 in Rain Light Rain
6:58 AM 62.1 °F 60.1 °F 93% 29.84 in 3.0 mi SSE 4.6 mph - 0.00 in   Overcast
7:22 AM 63.0 °F 60.1 °F 90% 29.85 in 5.0 mi NNE 3.5 mph - 0.00 in   Overcast
7:51 AM 63.0 °F 60.1 °F 90% 29.84 in 5.0 mi NE 5.8 mph - 0.00 in   Overcast
8:51 AM 64.9 °F 61.0 °F 87% 29.86 in 4.0 mi Calm Calm - N/A   Overcast
9:51 AM 64.9 °F 63.0 °F 93% 29.87 in 3.0 mi Calm Calm - N/A   Overcast
10:51 AM 66.2 °F 62.6 °F 88% 29.85 in 3.0 mi SSE 3.5 mph - N/A   Overcast
11:47 AM 69.8 °F 64.4 °F 83% 29.84 in 5.0 mi SSE 4.6 mph - N/A   Haze
11:51 AM 71.1 °F 64.9 °F 81% 29.84 in 5.0 mi Variable 6.9 mph - N/A   Haze
12:20 PM 72.0 °F 64.9 °F 78% 29.83 in 5.0 mi ESE 4.6 mph - N/A   Haze
12:28 PM 72.0 °F 66.0 °F 81% 29.82 in 5.0 mi SE 4.6 mph - N/A   Haze
12:51 PM 73.0 °F 66.0 °F 79% 29.83 in 6.0 mi South 8.1 mph - N/A   Haze
1:51 PM 75.9 °F 66.9 °F 74% 29.81 in 6.0 mi South 8.1 mph - N/A   Haze
2:51 PM 79.0 °F 66.9 °F 66% 29.79 in 8.0 mi SSE 8.1 mph - N/A   Partly Cloudy
3:51 PM 75.9 °F 66.0 °F 71% 29.77 in 9.0 mi SSE 13.8 mph - N/A   Clear
4:15 PM 73.0 °F 64.9 °F 76% 29.75 in 8.0 mi SSE 13.8 mph - N/A Thunderstorm Scattered Clouds
4:32 PM 72.0 °F 64.9 °F 78% 29.78 in 7.0 mi South 13.8 mph - 0.00 in Rain , Thunderstorm Light Thunderstorms and Rain
4:51 PM 71.1 °F 64.0 °F 78% 29.78 in 10.0 mi SSE 8.1 mph - 0.00 in Thunderstorm Mostly Cloudy
5:07 PM 71.1 °F 66.0 °F 84% 29.79 in 5.0 mi SSE 10.4 mph - N/A   Haze
5:51 PM 69.1 °F 64.0 °F 84% 29.82 in 6.0 mi ENE 8.1 mph - N/A Thunderstorm Haze
5:59 PM 70.0 °F 64.0 °F 81% 29.81 in 6.0 mi NE 8.1 mph - N/A Thunderstorm Unknown
6:37 PM 68.0 °F 62.1 °F 81% 29.81 in 6.0 mi ESE 8.1 mph - 0.01 in Rain , Thunderstorm Light Thunderstorms and Rain
6:47 PM 66.2 °F 62.6 °F 88% 29.80 in 2.5 mi ESE 10.4 mph - 0.10 in Rain , Thunderstorm Light Thunderstorms and Rain
6:49 PM 66.2 °F 62.6 °F 88% 29.80 in 4.0 mi ESE 8.1 mph - 0.10 in Rain , Thunderstorm Light Rain
6:51 PM 66.9 °F 63.0 °F 87% 29.81 in 6.0 mi SE 6.9 mph - 0.10 in Rain , Thunderstorm Light Rain
7:04 PM 66.9 °F 62.1 °F 84% 29.81 in 10.0 mi East 6.9 mph - 0.00 in   Scattered Clouds
7:46 PM 66.2 °F 62.6 °F 88% 29.81 in 10.0 mi South 5.8 mph - 0.00 in Thunderstorm Scattered Clouds
7:51 PM 64.9 °F 62.1 °F 90% 29.81 in 10.0 mi SSE 5.8 mph - 0.00 in Thunderstorm Partly Cloudy
8:40 PM 64.0 °F 61.0 °F 90% 29.81 in 10.0 mi South 6.9 mph - N/A   Clear
8:51 PM 64.0 °F 60.1 °F 87% 29.82 in 10.0 mi South 8.1 mph - N/A   Clear
9:51 PM 62.1 °F 60.1 °F 93% 29.85 in 10.0 mi Calm Calm - N/A   Partly Cloudy
10:05 PM 63.0 °F 61.0 °F 93% 29.85 in 8.0 mi Calm Calm - N/A   Mostly Cloudy
10:16 PM 63.0 °F 60.1 °F 90% 29.86 in 8.0 mi North 4.6 mph - N/A   Scattered Clouds
10:51 PM 64.4 °F 60.8 °F 88% 29.86 in 8.0 mi Calm Calm - N/A   Overcast
11:51 PM 62.1 °F 61.0 °F 96% 29.87 in 6.0 mi WSW 3.5 mph - N/A   Scattered Clouds